GPS BIIRM-4 (PRN 15)

Last updated on July 6, 2021, 3:39 p.m. UTC

1 32260U 07047A   21186.37536180  .00000041  00000-0  00000-0 0  9997
2 32260  53.2395 154.9270 0131157  56.5233 304.6968  2.00567033100555
UTC
Height (km)
Latitude
Longitude
Inclination
Orbital Period
UTC large
Height (km)
Speed (km/s)
/
Latitude / Longitude
Inclination (degrees)
Orbital Period (minutes)
Azimuth
Elevation
Range (km)
Doppler Factor
iOS Compass Heading
iOS Angle